STARLINK-32913 (63098 NORAD) Tracking and Keplerian Element Data

This shows tracking and keplerian element data for the satellite.

Feedback or suggestion? Click here.




ElementValue
Catalog63098
NameSTARLINK-32913
Epoch Orbit4667
Epoch Day353.97821206
Epoch Year2025
RAAN195.3615
Inclination69.9989
Eccentricity0.0002546
Argument of Perigee270.1187
Mean Anonmoly89.9681
Mean Motion14.98333522
Decay Rate1.794E-05
L11 63098U 25037X 25353.97821206 .00001794 00000+0 15806-3 0 9999
L22 63098 69.9989 195.3615 0002546 270.1187 89.9681 14.98333522 46675



Live tracking and technical data element details for STARLINK-32913 (NORAD 63098). STARLINK-32913 can be tracked NOW for your location showing map with azimuth and elevation plus other details from your city location.







IsCatalogInMostPopularTable: catalog: 63098, numindb: 2
Update: records affected: 1



GetName: 63098 STARLINK-32913

Hit Count: updated at: Sun, 08 Feb 2026 07:29:35 GMT